Regional Weather Roundup
Issued by NWS Cleveland, OH

Home | Current Version | Previous Version | Graphics & Text | Print | Product List | Glossary On
Versions: 1 2 3 4 5 6 7 8 9 10 11 12 13 14 15 16 17 18 19 20 21 22 23 24 25 26 27 28 29 30 31 32 33 34 35 36 37 38 39 40 41 42 43 44 45 46 47 48 49 50
000
ASUS41 KCLE 230010
RWRCLE
OHIO REGIONAL WEATHER ROUNDUP
NATIONAL WEATHER SERVICE CLEVELAND, OH
800 PM EDT SUN OCT 22 2017

NOTE: "FAIR" INDICATES FEW OR NO CLOUDS BELOW 12,000 FEET WITH NO
SIGNIFICANT WEATHER AND/OR OBSTRUCTIONS TO VISIBILITY.

OHZ001>008-015>018-024>027-034-035-043-044-230100-
   NORTHWEST OHIO

CITY           SKY/WX    TMP DP  RH WIND       PRES   REMARKS
DEFIANCE       CLOUDY    71  53  52 S9        30.05R
FINDLAY        PTCLDY    68  47  46 S13       30.07R
TOLEDO EXPRESS PTCLDY    72  54  53 S7        30.05R
TOLEDO EXEC    CLOUDY    71  51  49 S10       30.07R
LIMA           CLOUDY    68  49  50 S12       30.08R
$$

OHZ009>014-019>023-028>033-038-089-230100-
   NORTHEAST OHIO

CITY           SKY/WX    TMP DP  RH WIND       PRES   REMARKS
CLE-HOPKINS    CLOUDY    68  47  46 S7        30.14S
CLE-LAKEFRONT  CLOUDY    71  48  43 S8        30.11S
CUY CO. ARPT   PTCLDY    72  50  46 S8        30.14S
LORAIN-ELYRIA  CLOUDY    69  42  37 S9        30.12S
ASHTABULA      CLOUDY    68  51  54 SE8       30.16S
AKRON-CANTON   CLOUDY    67  49  52 S9        30.16S
WOOSTER        PTCLDY    57  48  72 S3        30.15S
MANSFIELD      CLOUDY    66  50  56 SE6       30.14S
YOUNGSTOWN     MOCLDY    60  50  69 SE7       30.17F
$$

OHZ042-051>053-060>062-070>072-077>081-230100-
  SOUTHWEST OHIO

CITY           SKY/WX    TMP DP  RH WIND       PRES   REMARKS
CINC-COVINGTON CLOUDY    67  53  61 SE10      30.09R
CINC-LUNKEN    CLOUDY    64  53  67 CALM      30.10R
HAMILTON       CLOUDY    67  52  58 CALM      30.10R
DAYTON         CLOUDY    67  50  54 S12       30.11R
WRIGHT-PAT AFB CLOUDY    67  46  46 SE10      30.10F
DAYTON GENERAL CLOUDY    66  48  52 SE8       30.10R
WILMINGTON     PTCLDY    64  49  57 SE6       30.12S
$$

OHZ036-037-039>041-045>050-054>059-063>069-073>076-082>088-230100-
  CENTRAL AND SOUTHEAST OHIO

CITY           SKY/WX    TMP DP  RH WIND       PRES   REMARKS
COLUMBUS       CLOUDY    67  52  58 SE3       30.12S
OSU AIRPORT    PTCLDY    67  50  54 SE7       30.12S
BOLTON FIELD   PTCLDY    62  49  62 CALM      30.13F
RICKENBACK AFB PTCLDY    65  49  57 SE3       30.13R
NEWARK         CLOUDY    59  51  75 CALM      30.13S
MARION         MOCLDY    67  48  50 S9        30.12S
LANCASTER      PTCLDY    58  52  80 CALM      30.14S
ZANESVILLE     CLOUDY    64  50  60 CALM      30.14F
NEW PHILLY     NOT AVBL
$$




USA.gov is the U.S. government's official web portal to all federal, state and local government web resources and services.